Regional Weather Roundup
Issued by NWS

Home | Current Version | Previous Version | Graphics & Text | Print | Product List | Glossary On
Versions: 1 2 3 4 5 6 7 8 9 10 11 12 13 14 15 16 17 18 19 20 21 22 23 24 25 26 27 28 29 30 31 32 33 34 35 36 37 38 39 40 41 42 43 44 45 46 47 48
000
ASUS45 KTFX 021210
RWRMT
MONTANA REGIONAL WEATHER ROUNDUP
NATIONAL WEATHER SERVICE GREAT FALLS MT
600 AM MDT THU JUL 02 2015

NOTE: "FAIR" INDICATES FEW OR NO CLOUDS BELOW 12000 FEET WITH NO
SIGNIFICANT WEATHER AND/OR OBSTRUCTIONS TO VISIBILITY.

MTZ001>007-043-021300-
WEST OF THE DIVIDE

CITY           SKY/WX    TMP DP  RH WIND       PRES   REMARKS
KALISPELL      SUNNY     65  51  60 NE8       30.10R
MISSOULA       CLEAR     69  51  52 SE10      30.12R
BUTTE          CLEAR     51  46  83 SE5       30.27S
MULLAN PASS    CLEAR     66  38  35 S5        30.24S
DEER LODGE       N/A     57  50  77 NW7       30.26S
EUREKA           N/A     59  54  82 CALM      30.12S
HAMILTON         N/A     57  43  58 W2        30.13S
PLAINS           N/A     57  46  66 CALM      30.08R
RONAN            N/A     58  54  86 E2        30.14R
THOMPSON FALLS   N/A     54  47  77 CALM      30.11R
$$

MTZ008-052>055-021300-
SOUTHWEST MONTANA

CITY           SKY/WX    TMP DP  RH WIND       PRES   REMARKS
BOZEMAN        CLEAR     56  51  84 W3        30.21R
DILLON         CLEAR     57  49  74 E9        30.21S
W YELLOWSTONE  CLEAR     41  39  93 CALM      30.29S
THREE FORKS      N/A     55  43  64 CALM      30.17S
TWIN BRIDGES     N/A     63  49  60 N15       30.17R
$$

MTZ009-010-012-014-046-048-049-054-021300-
EAST SLOPES AND CENTRAL MONTANA

CITY           SKY/WX    TMP DP  RH WIND       PRES   REMARKS
CUT BANK       CLEAR     51  49  92 W5        30.21S
GREAT FALLS    CLEAR     55  50  83 W5        30.20S
MALMSTROM AFB  CLEAR     56  51  82 S3        30.21R
HELENA         MOCLDY    64  50  60 W8        30.21S
CONRAD           N/A     51  51 100 CALM      30.21S
$$

MTZ011-013-016-021-045-047-050-051-021300-
NORTH CENTRAL MONTANA

CITY           SKY/WX    TMP DP  RH WIND       PRES   REMARKS
HAVRE          CLEAR     53  52  96 SW7       30.15R
LEWISTOWN      PTCLDY    56  50  80 S8        30.22R
CHINOOK          N/A     57  54  88 W3        30.14R
FORT BENTON      N/A     57  52  82 CALM      30.19R
$$

MTZ017>020-022>027-061-062-021300-
NORTHEAST MONTANA

CITY           SKY/WX    TMP DP  RH WIND       PRES   REMARKS
GLASGOW        CLEAR     56  53  90 W5        30.06S
JORDAN           N/A     57  52  83 W8        30.11R
SIDNEY         CLEAR     57  54  88 CALM      30.04R
WOLF POINT     PTCLDY    58  55  90 S6        30.05R
MALTA            N/A     57  53  86 CALM      30.06R
PLENTYWOOD       N/A     55  55 100 CALM      30.03R
SCOBEY           N/A     54  50  86 S1        30.04R
$$

MTZ028>42-056>058-021300-
SOUTHCENTRAL AND SOUTHEAST MONTANA

CITY           SKY/WX    TMP DP  RH WIND       PRES   REMARKS
BAKER          FOG       57  57 100 W6        30.08S VSB 1/4
BILLINGS       PTCLDY    63  54  72 W6        30.18R
LIVINGSTON     PTCLDY    57  50  77 N7        30.22R
MILES CITY     CLEAR     59  55  87 W8        30.10R
EKALAKA          N/A     56  53  89 CALM      30.08R
FORSYTH          N/A     61  61 100 W5        30.12R
LAUREL           N/A     63  50  62 CALM      30.15R
ROUNDUP          N/A     59  53  80 CALM      30.08R
$$

REGIONAL REPORTS...DAKOTAS

CITY           SKY/WX    TMP DP  RH WIND       PRES   REMARKS
WILLISTON      CLEAR     56  53  90 W3        30.02R
MINOT          PTCLDY    63  60  90 W6        29.96R FOG
DICKINSON      CLEAR     58  56  93 W7        30.02R FOG
BEACH          FAIR      55  55 100 NW5       30.08R
CROSBY         FOG       57  57 100 W6        30.02R VSB 1
BISMARCK       MOCLDY    62  61  96 CALM      29.97S FOG
GRAND FORKS    MOSUNNY   58  56  93 S8        29.96R
FARGO          SUNNY     60  54  80 S9        29.98S
BUFFALO SD       N/A     61  59  93 NW9       30.00S
RAPID CITY     CLEAR     64  61  90 N16       30.05R
$$

REGIONAL REPORTS...WYOMING/IDAHO/WASHINGTON

CITY           SKY/WX    TMP DP  RH WIND       PRES   REMARKS
GILLETTE       MOCLDY    57  54  89 W3        30.16S
SHERIDAN       CLEAR     56  52  86 SW5       30.17R
BUFFALO WY     CLEAR     59  53  80 NW9       30.22R
CODY           CLEAR     64  45  48 NW6       30.22S
YELLOWSTONE LA   N/A     44  39  82 CALM      30.38R
IDAHO FALLS    CLEAR     57  53  86 N6        30.11R
SALMON         PTCLDY    54  43  66 CALM      30.13S
BOISE          CLEAR     70  48  45 CALM      29.99R
SPOKANE        PTCLDY    67  46  47 CALM      30.01S
$$

REGIONAL REPORTS...ALBERTA

CITY           SKY/WX    TMP DP  RH WIND       PRES   REMARKS
EDMONTON       CLEAR     57  52  82 SW3       30.09S
CALGARY        PTCLDY    55  52  88 VRB2      30.19S
LETHBRIDGE     PTCLDY    54  52  94 SW7       30.18R
MEDICINE HAT   CLEAR     55  54  94 SW5       30.14R FOG
WATERTON GATE    N/A     48  46  93 SW1         N/A
ONEFOUR          N/A     54  52  94 W6          N/A
$$

REGIONAL REPORTS...SASKATCHEWAN

CITY           SKY/WX    TMP DP  RH WIND       PRES   REMARKS
SWIFT CURRENT  FOG       61 N/A N/A NW6       30.08R VSB 1/8
REGINA         PTCLDY    55  55 100 NW6       30.02R
SASKATOON      FOG       57  57 100 NW7       30.03R VSB 1
CYPRESS HILLS    N/A     55  54  94 N7          N/A
VAL MARIE        N/A     57  55  94 W6          N/A
ROCKGLEN         N/A     59  57  94 W8          N/A
ASSINIBOIA       N/A     55  54  94 SW2         N/A
$$



USA.gov is the U.S. government's official web portal to all federal, state and local government web resources and services.